SL-8 DEB, 43336

Orbit data source: Space-Track

SL-8 DEB, 43336 is space debris in LEO originally from a launch on Tue, 04 Apr 1989 UTC launched from the Plesetsk Missile And Space Complex (PKMTR). Debris objects in space refer to the collection of defunct objects orbiting the Earth. Examples of debris include non-operational satellites, rocket bodies, and fragments generated from explosions, collisions, or faulty payload assembly.

Loading next visibility...
Identifier
43336, 1989-050C
Orbit
LEO
Country
Flag of CISCIS
Related business
Manufacturer
Polyot
Mission
Spacecraft
Bus & Motor
Unknown
Mass
Unknown
Launch date (UTC)
1989-04-04 (37 years ago)
Launch vehicle
Unknown
Launch site
Plesetsk Missile And Space Complex (PKMTR)
Object type
Payload
Rocket body
Debris
Shape & HBR
Unknown shape, 0.1 m
Radar Cross Section
Small (<0.1 m²)

Expand to show TLE details & history
Last TLE update: 3 days ago

TLE from 3 days ago
0 SL-8 DEB
1 43336U 89050C   26170.46415893  .00000323  00000-0  29462-3 0  9991
2 43336  82.9536 245.3646 0040623 315.1415  44.6462 13.80148314549938
Epoch: 2026-06-19T11:08Z
TLE epoch observation values (Epoch: 2026-06-19T11:08:23.331Z)
Latitude
-0.00007°
Longitude
170.57462°
Altitude
945.106 km
Speed
7.39 km/s
True Right ascension
16h 21m 27s
True Declination
0° 00' 00"
Sunlit
Object was in full shadow at epoch
Visualization orbit readout
Latitude
Unknown
Longitude
Unknown
Altitude
Unknown
Speed
Unknown
Apparent Right ascension
Unknown
Apparent Declination
Unknown
Sunlit
N/A
Visualization observer readout
Local Sidereal Time
21:25:06
Azimuth
Unknown
Elevation
Unknown
Doppler factor
Unknown
Orbital elements
Apogee altitude
990.314 km
Perigee altitude
930.69 km
Semi-major axis
7,338.639 km
Eccentricity
0.00406
Inclination
82.9536°
RAAN
245.3646°
Arg. of periapsis
315.1415°
True anomaly
44.97451°
Mean anomaly
44.6462°
Eccentric anomaly
44.81023°
Mean motion
3.45239 °/min
Orbital period
104.28 mins
BSTAR
0.00029462
Loading maneuver chart data...
Computing Atmospheric mass density...
Loading historical data...
Loading historical data...
Loading historical data...
Loading historical data...
Loading historical data...
Loading historical data...
Loading historical data...
Other satellites on launch #50 in the year 1989 (1989-04-04 UTC)

Documentation

Showing up to 5 results
|